Theta_e
299 300 300 300 300 300 300 300 301 300 300 300 301 301 302 303 305 304 304 304 304 304 304 306 308 309 311 312 313 315 314 317 314 315 313 308 309 308 308 309 312 308 308 307 307
299 299 299 299 299 299 300 300 300 300 300 300 301 302 303 303 306 305 304 304 304 304 304 308 308 310 310 311 311 315 318 313 311 309 308 308 308 308 309 309 309 308 308 308 308
299 299 299 299 299 299 299 300 300 300 300 301 302 303 303 303 307 305 304 304 305 304 305 305 307 309 310 309 310 311 312 310 307 307 307 308 308 308 309 310 308 308 309 309 309
299 299 298 298 298 298 299 299 300 300 301 301 302 304 303 305 311 304 305 305 305 304 305 308 308 310 310 310 309 309 307 308 307 307 307 308 308 308 308 309 308 309 310 310 310
298 298 298 298 298 298 298 299 299 301 302 302 301 303 305 308 306 305 305 305 305 305 305 307 309 310 310 309 309 309 308 307 307 307 307 308 307 308 309 308 309 309 311 311 311
298 298 298 297 297 298 298 299 300 303 304 304 305 305 307 309 305 305 306 305 305 307 305 307 308 308 308 309 310 308 308 307 308 307 307 308 308 310 309 308 309 310 311 311 311
298 298 297 297 297 297 298 299 300 302 304 304 304 305 307 307 306 306 306 306 306 305 307 306 305 309 308 309 307 307 308 308 308 308 308 308 311 310 309 308 309 309 310 311 311
298 297 297 297 297 297 298 300 301 302 302 303 304 306 308 305 305 306 306 306 306 305 305 305 306 307 309 306 308 309 311 311 308 309 309 309 311 309 308 308 309 309 309 310 311
298 297 297 296 296 297 298 301 302 303 303 302 304 309 308 305 306 305 305 305 305 305 305 306 307 308 307 310 311 311 311 310 310 308 310 311 311 309 308 308 308 309 309 309 310
297 297 296 296 296 297 300 302 303 303 303 304 305 309 307 307 305 305 305 305 305 306 309 309 310 311 311 311 313 311 310 309 310 309 310 310 310 309 308 308 308 308 308 309 309
297 297 296 296 296 297 298 300 303 308 304 307 307 307 307 305 306 305 305 305 306 308 311 309 312 311 310 309 310 310 310 310 309 308 310 310 310 309 308 308 307 307 308 308 308
297 296 296 296 297 297 297 300 299 306 307 305 305 306 305 305 307 306 305 308 309 310 310 312 311 308 308 308 309 310 310 310 309 308 309 311 311 310 309 308 307 307 307 307 307
297 296 296 296 296 297 297 297 300 304 308 305 305 306 306 306 306 306 307 307 309 310 310 313 309 306 308 308 309 310 311 310 309 309 309 310 312 311 310 308 307 307 306 307 306
297 296 296 295 296 297 297 298 302 301 312 306 304 305 306 306 306 304 304 306 308 310 309 309 306 307 309 309 309 310 308 309 309 312 313 311 312 311 310 308 307 307 306 307 306
297 296 295 295 297 297 297 300 302 299 321 303 303 303 304 306 306 305 304 307 309 307 309 309 308 309 310 308 308 310 308 309 309 311 311 312 313 313 309 308 307 306 306 305 305
297 297 295 295 296 297 297 301 302 311 313 304 302 305 306 306 305 304 305 304 304 307 307 307 305 307 308 307 307 307 309 308 309 310 314 311 310 314 309 308 307 306 305 304 304
298 297 295 295 296 297 297 302 309 313 300 306 304 305 307 306 306 305 306 307 310 313 312 306 306 306 306 309 308 309 309 315 315 315 311 308 310 311 307 306 306 305 305 303 303
299 297 295 295 296 297 299 307 307 311 306 300 304 305 306 305 305 305 306 308 304 305 309 311 311 306 306 308 310 309 309 312 311 311 309 308 311 310 307 306 305 305 304 303 303
300 298 296 295 296 297 301 308 317 311 301 303 304 306 305 303 306 306 306 307 306 305 311 307 307 305 306 307 308 309 310 308 310 306 309 309 309 308 307 306 305 304 303 303 301
301 299 296 295 296 298 305 308 305 299 301 303 308 306 308 305 307 307 306 304 304 304 303 305 308 304 305 306 307 309 307 310 309 312 310 308 308 309 306 305 305 304 303 302 302
301 297 297 297 296 299 304 309 300 297 301 303 304 302 304 304 306 309 306 303 302 305 304 304 306 305 304 307 308 308 308 308 308 309 309 307 308 305 304 304 304 303 302 301 301
299 302 297 296 299 297 303 300 297 298 299 300 301 302 303 303 304 305 305 304 302 304 304 304 306 308 307 304 303 307 306 307 307 307 308 307 307 303 303 303 302 302 302 300 300
298 298 298 298 301 299 296 297 299 299 301 301 301 301 301 302 304 304 304 301 302 303 303 304 306 307 306 305 303 306 306 305 305 305 305 307 307 303 303 303 302 302 301 300 298
299 300 298 298 298 300 299 299 300 298 301 300 301 300 301 301 302 303 303 301 301 301 300 302 304 306 307 307 306 305 305 304 304 306 305 305 305 305 303 302 302 301 301 300 298
299 300 298 299 298 297 299 300 300 300 299 299 300 301 302 302 302 302 302 301 302 302 300 301 303 302 301 302 302 303 302 303 302 303 304 305 305 304 302 300 300 300 300 299 297
298 298 298 298 299 298 297 300 301 301 300 300 302 301 301 303 303 303 302 302 302 301 299 297 301 298 298 297 299 299 300 300 301 302 303 304 305 302 301 299 300 300 299 298 297
300 300 299 298 299 299 298 298 300 300 300 300 300 301 300 300 300 301 302 302 302 301 300 299 297 299 302 295 297 300 298 299 300 302 303 304 303 302 301 300 299 299 298 297 296
Wind_Speed
2 3 4 4 6 7 10 10 11 12 12 11 9 7 4 11 21 12 15 14 16 12 8 8 6 6 7 7 7 3 0 8 8 8 7 13 11 12 10 10 8 13 16 20 25
3 3 4 5 7 8 9 10 10 11 11 9 8 6 4 5 10 19 15 11 11 10 10 6 4 6 6 6 6 7 7 5 7 7 7 11 12 15 9 9 15 24 24 25 26
4 4 3 4 6 7 8 10 10 11 10 8 6 6 2 2 3 11 13 11 11 9 9 6 7 6 10 10 8 7 6 9 6 6 5 8 11 11 12 12 21 28 32 30 27
5 5 4 4 5 6 7 9 10 10 8 6 4 8 8 3 1 9 13 12 12 10 8 5 1 3 6 6 5 10 10 6 4 3 6 10 7 8 12 13 18 21 24 26 25
7 6 4 4 5 5 6 7 9 8 7 4 3 3 6 7 6 9 13 12 11 10 6 7 9 9 7 11 17 16 11 10 4 3 10 6 9 4 15 17 19 20 23 24 24
8 6 5 4 4 5 5 6 5 6 8 8 6 5 5 4 7 9 11 10 12 16 13 10 12 14 12 8 6 9 15 8 7 7 6 6 5 13 17 19 21 23 24 23 23
8 7 5 3 4 4 4 4 3 1 3 3 4 11 12 5 7 7 8 11 11 11 11 12 5 1 8 9 11 17 10 3 9 9 3 5 8 12 16 19 20 23 24 25 24
8 7 5 3 3 3 3 3 2 1 3 1 5 6 4 5 6 4 5 6 9 9 10 9 11 8 5 15 7 6 5 5 7 12 3 5 5 12 17 18 22 24 24 26 26
8 8 5 4 3 2 2 1 1 2 2 1 2 5 3 4 3 3 5 4 5 6 6 8 8 6 5 7 6 4 5 3 5 6 4 3 2 10 15 19 24 26 27 29 32
8 8 6 5 3 2 1 4 4 2 3 4 5 3 2 2 2 3 4 5 3 4 5 6 4 5 4 4 1 5 5 2 2 5 2 2 3 6 14 20 25 27 29 31 33
9 8 6 5 3 3 4 0 2 1 3 4 1 5 3 2 9 5 2 6 5 3 3 7 4 8 8 9 9 6 5 3 2 3 4 2 5 4 13 21 28 30 32 34 36
9 8 7 6 4 3 3 2 3 5 6 5 6 6 3 2 0 9 4 2 3 4 3 4 7 5 4 3 5 3 2 3 1 1 4 4 10 5 11 18 27 30 34 36 41
10 9 7 6 5 3 4 4 3 6 1 2 3 2 2 3 3 8 5 3 8 9 5 5 6 2 1 4 4 5 3 3 4 5 5 10 11 9 6 17 27 30 30 34 40
11 9 8 5 3 4 2 4 8 2 1 4 4 1 0 3 3 6 4 2 3 6 7 6 2 1 2 2 6 2 2 3 3 4 3 4 4 8 9 16 24 30 35 38 43
12 10 9 8 2 5 2 7 6 2 2 4 3 2 2 1 5 4 7 4 4 7 2 3 2 2 1 2 5 3 3 2 0 2 3 5 4 6 12 17 21 29 32 35 39
13 11 9 8 6 3 4 9 4 3 7 3 2 4 5 2 2 2 3 6 5 7 11 4 1 3 3 1 2 3 2 2 2 3 2 2 4 3 8 14 20 29 32 34 39
14 12 10 9 6 6 8 8 3 3 2 3 4 5 4 3 2 1 3 4 2 5 3 2 2 1 2 3 4 4 5 2 2 3 2 2 5 5 11 15 19 24 29 32 37
18 14 12 11 8 9 13 1 4 1 3 1 3 8 4 4 1 2 5 5 1 2 5 6 3 1 3 3 3 2 4 2 4 3 4 3 3 3 8 17 21 24 27 31 41
20 16 13 12 10 13 5 3 4 1 5 10 6 4 4 4 2 3 5 5 3 5 4 5 3 4 3 2 2 3 1 2 0 1 3 2 3 6 10 16 24 26 29 32 38
25 18 15 14 14 14 1 6 2 2 3 6 4 5 7 8 6 5 8 4 5 3 2 4 4 1 3 1 2 3 4 3 2 3 4 2 4 3 14 17 18 24 27 30 29
24 13 14 14 15 7 5 5 2 4 3 4 3 4 4 6 8 3 6 4 5 7 3 4 1 4 2 5 4 4 3 3 2 2 3 4 1 4 7 10 13 20 22 25 26
28 4 14 22 6 3 3 3 3 5 3 3 2 2 6 7 7 7 8 2 10 10 7 3 2 4 2 3 2 3 2 5 3 3 3 3 2 3 5 8 12 17 19 21 22
24 7 19 26 6 5 0 2 2 5 4 5 5 1 2 6 3 4 6 2 8 7 6 7 4 4 2 2 3 5 7 4 1 1 6 2 1 4 4 9 12 14 18 19 21
15 5 7 19 8 5 6 5 4 5 4 3 3 4 5 4 1 6 8 4 6 6 3 2 2 3 1 4 3 5 11 10 7 3 3 8 7 7 4 7 11 12 14 15 17
13 7 12 7 14 9 10 9 9 8 6 7 2 7 5 4 5 6 6 6 6 7 3 3 4 3 2 2 0 3 8 13 14 10 6 2 5 6 3 3 7 8 10 12 14
17 10 12 8 18 20 12 12 12 7 11 6 5 11 6 5 5 9 10 8 5 10 6 2 2 1 2 1 2 6 10 13 15 14 14 13 12 3 2 1 3 6 7 9 10
18 16 18 15 15 15 17 14 14 12 11 4 14 8 8 4 5 3 10 8 10 11 6 7 6 4 2 2 3 7 18 19 15 10 15 10 6 7 3 2 1 2 4 4 6
Wind_Direction
269 302 319 339 345 357 359 5 6 359 1 6 13 24 79 52 44 46 45 16 10 23 31 31 41 74 66 53 45 333 310 62 40 23 1 357 355 360 347 342 37 7 347 330 329
277 295 311 329 340 354 359 359 3 355 354 1 12 26 98 83 61 37 32 21 17 31 44 49 46 70 71 46 32 25 64 69 42 32 356 348 354 354 350 17 356 339 336 334 333
266 280 301 313 333 350 357 354 355 354 351 359 29 41 107 138 56 11 26 26 31 48 37 65 85 80 77 64 28 36 86 126 58 21 357 348 360 3 1 18 349 335 331 334 335
264 272 288 310 330 347 355 351 348 356 354 4 78 58 70 72 28 12 33 31 31 50 44 31 33 65 81 77 89 107 86 108 85 35 28 350 340 58 33 353 339 333 332 331 332
258 263 281 308 327 342 354 352 349 6 11 35 72 80 78 66 42 42 37 40 47 56 63 63 78 82 89 107 85 96 112 86 84 66 21 55 62 41 11 347 342 340 340 337 333
258 260 272 299 316 332 353 353 357 57 66 68 59 79 79 82 65 50 43 45 55 54 56 70 76 96 89 77 53 124 125 94 47 54 40 50 67 20 1 351 348 347 347 341 334
258 262 268 290 303 328 349 343 341 192 82 63 21 71 71 83 62 58 50 50 55 61 57 69 58 27 117 110 115 131 124 131 38 23 61 328 59 19 360 355 354 352 348 344 340
249 252 259 267 285 312 331 329 337 329 239 273 67 75 78 85 80 59 64 43 60 64 82 78 80 73 68 120 125 149 175 180 57 14 39 322 78 14 5 356 355 354 349 345 343
245 246 248 252 257 288 320 329 43 54 60 123 80 99 95 85 33 61 53 44 57 81 44 38 58 78 126 164 144 193 131 95 141 27 317 316 52 9 3 0 357 354 352 347 341
236 242 242 243 245 241 122 90 75 84 78 86 89 113 54 18 43 49 54 54 72 42 11 23 58 111 64 236 289 150 142 135 115 41 307 122 96 13 10 5 358 352 349 347 343
230 232 235 235 235 231 202 205 344 44 57 69 67 97 85 68 52 18 102 53 54 38 37 27 70 64 44 34 59 83 102 123 114 63 309 243 270 354 4 4 359 352 348 343 341
223 225 228 229 226 237 212 194 221 164 93 80 83 91 97 106 15 15 82 62 53 77 336 76 79 55 34 65 94 98 154 39 170 309 306 287 273 218 359 7 356 351 349 343 339
218 219 224 223 226 243 220 231 186 146 215 165 138 65 106 49 46 1 40 89 65 69 54 65 89 101 342 131 122 49 21 14 328 307 258 295 254 210 336 360 354 354 349 347 343
210 211 217 214 226 223 209 201 167 153 63 180 190 182 127 128 73 34 60 52 72 103 68 66 81 109 143 77 308 226 47 346 302 298 328 344 311 171 359 357 356 352 353 351 346
210 205 203 196 191 188 207 168 160 74 299 106 134 172 109 173 128 31 58 41 91 108 173 98 99 95 69 28 332 47 326 285 260 297 312 171 260 85 10 355 347 350 354 356 349
204 205 204 201 205 200 179 162 135 50 247 144 150 156 161 111 66 103 87 79 115 80 68 87 57 341 30 56 15 340 243 231 252 246 241 105 345 64 15 346 344 347 354 354 350
200 197 203 199 194 184 164 149 59 202 39 182 171 173 186 133 93 177 133 124 187 125 137 155 111 111 335 238 191 244 252 248 224 221 316 96 277 57 18 0 347 347 354 352 356
203 198 194 197 185 171 158 112 224 38 206 144 142 149 186 153 116 163 155 165 192 245 143 175 190 184 1 349 0 8 313 330 300 300 332 110 265 85 21 3 353 356 359 356 359
198 197 202 191 183 170 165 183 225 186 145 156 143 160 167 184 201 167 207 175 153 204 178 146 132 124 54 349 302 100 249 2 109 53 272 229 190 150 353 0 356 357 3 359 356
189 189 199 190 182 173 157 230 209 120 131 188 215 203 170 183 188 204 183 164 164 193 246 143 123 173 120 276 101 302 105 225 131 288 280 170 272 293 358 346 348 354 1 356 359
187 170 193 195 178 176 212 227 200 175 168 213 215 154 175 175 185 190 178 170 175 157 169 154 223 139 178 205 191 166 190 226 318 285 291 305 89 60 355 343 344 349 360 359 1
173 136 175 182 157 192 225 197 167 167 198 218 230 105 172 162 178 196 195 304 173 163 158 163 112 164 145 119 286 286 239 238 256 174 250 300 295 115 14 356 358 353 360 4 4
156 136 174 174 193 204 145 309 247 164 198 198 189 200 140 172 166 193 168 114 167 176 164 177 174 134 154 197 196 229 193 225 212 350 222 251 65 168 44 21 17 2 1 10 10
142 148 161 201 225 208 179 191 215 211 201 236 150 128 143 154 210 168 155 161 173 180 151 152 198 261 242 83 129 191 199 198 214 193 204 238 287 207 30 21 13 6 5 11 20
163 182 173 185 200 187 191 180 180 189 213 198 219 223 167 141 155 189 162 151 175 163 133 194 209 212 110 82 261 238 195 199 215 222 227 47 264 313 12 14 9 3 3 15 24
158 150 168 171 180 184 198 199 198 176 164 198 198 188 185 156 196 192 173 186 178 178 172 166 175 133 207 298 251 252 235 220 227 235 242 262 269 359 150 328 356 10 7 16 26
180 164 156 162 167 179 209 202 203 175 203 202 203 137 204 201 91 10 187 179 165 162 158 161 147 172 191 7 278 265 223 210 217 218 217 232 245 168 207 240 307 352 9 22 33